Regional Weather Roundup
Issued by NWS

Home | Current Version | Previous Version | Text Only | Print | Product List | Glossary Off
Versions: 1 2 3 4 5 6 7 8 9 10 11 12 13 14 15 16 17 18 19 20 21 22 23 24 25 26 27 28 29 30 31 32 33 34 35 36 37 38 39 40 41 42 43 44 45 46 47 48 49 50

000
ASUS43 KBIS 250820
RWRND

NORTH DAKOTA REGIONAL WEATHER ROUNDUP
NATIONAL WEATHER SERVICE BISMARCK ND
300 AM CDT MON MAY 25 2015

NOTE: "FAIR" INDICATES FEW OR NO CLOUDS BELOW 12,000 FEET WITH NO
SIGNIFICANT WEATHER AND/OR OBSTRUCTIONS TO VISIBILITY.


NDZ001>003-009>011-017-250900-
NORTHWEST NORTH DAKOTA

CITY           SKY/WX    TMP DP  RH WIND       PRES   REMARKS
WILLISTON      MOCLDY    49  43  80 NE3       29.89S
MINOT          CLOUDY    55  48  77 CALM      29.87F
MINOT AFB      CLOUDY    51  51  99 NW5       29.86F
$$

NDZ018>021-031>035-040>046-250900-
SOUTHWEST NORTH DAKOTA

CITY           SKY/WX    TMP DP  RH WIND       PRES   REMARKS
BISMARCK       LGT RAIN  56  54  93 NE6       29.86F
DICKINSON      CLOUDY    55  49  80 E7        29.86S
GARRISON         N/A     57  52  83 CALM      29.87F
HETTINGER ARPT CLOUDY    53  51  93 NE5       29.86S
$$

NDZ004>008-012>016-024-026-027-054-250900-
NORTHEAST NORTH DAKOTA

CITY           SKY/WX    TMP DP  RH WIND       PRES   REMARKS
GRAND FORKS    CLOUDY    57  52  83 CALM      29.83S
GRND FRKS AFB  CLOUDY    55  51  87 NW5       29.83F
DEVILS LAKE    CLOUDY    55  50  82 N7        29.84F
$$

NDZ022-023-025-028>030-036>039-047>053-250900-
SOUTHEAST NORTH DAKOTA

CITY           SKY/WX    TMP DP  RH WIND       PRES   REMARKS
FARGO          RAIN      59  56  89 N7        29.82F FOG
JAMESTOWN      LGT RAIN  57  55  93 NW5       29.84F FOG
$$




USA.gov is the U.S. government's official web portal to all federal, state and local government web resources and services.